EW2280 Weather Reports


time (UTC)temp
F
wind
direction
speed
knots
gust
knots
rain 1hr
in
rain 24hr
in
rain mn
in
humidity
%
barometer
mb
20260904144552 79 122 0.0 0.0 0.00 0.01 0.00 97 1016.7
20260904143032 78 122 0.0 0.0 0.00 0.01 0.00 97 1016.6
20260904141538 78 122 0.0 0.0 0.00 0.01 0.00 97 1016.6
20260904140015 76 122 0.0 0.0 0.00 0.01 0.00 97 1016.7
20260904134514 75 122 0.0 0.0 0.00 0.01 0.00 97 1016.7
20260904133011 74 122 0.0 0.0 0.00 0.01 0.00 97 1016.6
20260904131509 73 122 0.0 0.0 0.00 0.01 0.00 97 1016.7
20260904130004 72 122 0.0 0.0 0.00 0.01 0.00 96 1016.7
20260904124601 72 122 0.0 0.0 0.00 0.01 0.00 96 1016.6
20260904123104 71 122 0.0 0.0 0.00 0.01 0.00 96 1016.6
20260904121600 70 122 0.0 0.0 0.00 0.01 0.00 96 1016.6
20260904120049 70 122 0.0 0.0 0.00 0.01 0.00 96 1016.4
20260904114538 69 122 0.0 0.0 0.00 0.01 0.00 96 1016.1
20260904113025 69 122 0.0 0.0 0.00 0.01 0.00 96 1015.9
20260904111518 70 122 0.0 0.0 0.00 0.01 0.00 96 1015.8
20260904110059 70 122 0.0 0.0 0.00 0.01 0.00 96 1015.6
20260904104605 70 122 0.0 0.0 0.00 0.01 0.00 96 1015.6
20260904103057 69 122 0.0 0.0 0.00 0.01 0.00 96 1015.5
20260904101545 69 122 0.0 0.0 0.00 0.01 0.00 96 1015.3
20260904100045 70 122 0.0 0.0 0.00 0.01 0.00 96 1015.4
20260904094546 70 122 0.0 0.0 0.00 0.01 0.00 96 1015.3
20260904093044 70 122 0.0 0.0 0.00 0.01 0.00 96 1015.3
20260904091549 70 122 0.0 0.0 0.00 0.01 0.00 96 1015.3
20260904090043 70 122 0.0 0.0 0.00 0.01 0.00 96 1015.2
20260904084542 70 122 0.0 0.0 0.00 0.01 0.00 96 1015.1
20260904083038 70 122 0.0 0.0 0.00 0.01 0.00 100 1015.0
20260904081528 70 122 0.0 0.0 0.00 0.01 0.00 100 1015.0
20260904080028 70 122 0.0 0.0 0.00 0.01 0.00 100 1014.9
20260904074544 70 122 0.0 0.0 0.00 0.01 0.00 100 1014.8
20260904073034 70 122 0.0 0.0 0.00 0.01 0.00 100 1014.7
20260904071527 71 122 0.0 0.0 0.00 0.01 0.00 100 1014.9
20260904070024 71 122 0.0 0.0 0.00 0.01 0.00 100 1014.8
20260904064528 71 122 0.0 0.0 0.00 0.01 0.00 100 1015.0
20260904063015 71 122 0.0 0.0 0.00 0.01 0.00 100 1015.1
20260904061513 71 122 0.0 0.0 0.00 0.01 0.00 100 1015.1
20260904060012 71 122 0.0 0.0 0.00 0.01 0.00 100 1015.2
20260904054513 71 122 0.0 0.0 0.00 0.01 0.00 100 1015.2
20260904053011 71 122 0.0 0.0 0.00 0.01 0.00 100 1015.3
20260904051505 71 122 0.0 0.0 0.00 0.01 0.00 100 1015.4
20260904050001 71 122 0.0 0.0 0.00 0.01 0.00 100 1015.4
20260904044502 71 122 0.0 0.0 0.00 0.01 0.01 100 1015.4
20260904043055 71 122 0.0 0.0 0.00 0.01 0.01 100 1015.5
20260904041558 72 122 0.0 0.0 0.00 0.01 0.01 100 1015.5
20260904040104 72 122 0.0 0.0 0.00 0.01 0.01 100 1015.6
20260904034549 72 122 0.0 0.0 0.00 0.01 0.01 100 1015.8
20260904033047 72 122 0.0 0.0 0.00 0.01 0.01 100 1015.7
20260904031550 72 122 0.0 0.0 0.00 0.01 0.01 100 1015.7
20260904030047 72 122 0.0 0.0 0.00 0.01 0.01 100 1015.7
20260904024547 73 122 0.0 0.0 0.00 0.01 0.01 100 1015.7
20260904023042 73 122 0.0 0.0 0.00 0.01 0.01 100 1015.6
20260904021538 73 122 0.0 0.0 0.00 0.01 0.01 100 1015.5
20260904020033 73 122 0.0 0.0 0.00 0.01 0.01 100 1015.3
20260904014545 74 122 0.0 0.0 0.00 0.01 0.01 100 1015.1
20260904013038 74 122 0.0 0.0 0.00 0.01 0.01 100 1014.9
20260904011532 74 122 0.0 0.0 0.00 0.01 0.01 100 1014.8
20260904010031 74 122 0.0 0.0 0.00 0.01 0.01 100 1014.6
20260904004531 75 122 0.0 0.0 0.00 0.01 0.01 100 1014.6
20260904003013 76 122 0.0 0.0 0.00 0.01 0.01 100 1014.4
20260904001516 76 122 0.0 0.0 0.00 0.01 0.01 100 1014.3
20260903234601 77 122 0.0 0.9 0.01 0.01 0.01 100 1014.2
20260903233202 78 122 0.0 0.0 0.01 0.01 0.01 99 1014.1
20260903231559 77 122 0.0 0.0 0.01 0.01 0.01 97 1014.0
20260903230058 78 122 0.0 0.9 0.01 0.01 0.01 94 1014.0
20260903224558 82 122 0.0 0.9 0.00 0.00 0.00 79 1013.8
20260903223113 89 339 1.7 5.2 0.00 0.00 0.00 60 1013.9
20260903221557 92 341 0.9 5.2 0.00 0.00 0.00 66 1013.6
20260903220111 94 92 0.0 0.0 0.00 0.00 0.00 63 1013.2
20260903214543 97 92 0.0 0.9 0.00 0.00 0.00 56 1013.4
20260903213042 98 127 0.0 0.9 0.00 0.00 0.00 59 1013.4
20260903211541 98 291 0.0 0.9 0.00 0.00 0.00 57 1013.5
20260903210038 99 292 0.0 1.7 0.00 0.00 0.00 55 1013.7
20260903204535 99 113 0.0 0.9 0.00 0.00 0.00 57 1013.8
20260903203033 99 17 0.0 0.9 0.00 0.00 0.00 57 1014.1
20260903201532 98 243 0.0 2.6 0.00 0.00 0.00 58 1014.3
20260903200018 98 232 0.0 0.9 0.00 0.00 0.00 57 1014.4
20260903194516 98 321 0.0 0.0 0.00 0.00 0.00 58 1014.6
20260903193012 98 208 0.0 1.7 0.00 0.00 0.00 58 1014.9
20260903191509 97 51 0.0 2.6 0.00 0.00 0.00 57 1015.0
20260903190006 95 103 0.0 1.7 0.00 0.00 0.00 62 1015.2
20260903184504 91 128 0.0 0.9 0.00 0.00 0.00 68 1015.5
20260903183002 92 124 0.0 2.6 0.00 0.00 0.00 64 1015.6
20260903181500 96 105 1.7 6.1 0.00 0.00 0.00 59 1015.7
20260903180059 96 254 0.0 2.6 0.00 0.00 0.00 61 1015.9
20260903174541 95 141 0.0 2.6 0.00 0.00 0.00 63 1016.1
20260903173038 93 34 0.0 3.5 0.00 0.00 0.00 69 1016.3
20260903171544 93 85 0.0 1.7 0.00 0.00 0.00 76 1016.6
20260903170040 91 194 0.9 3.5 0.00 0.00 0.00 77 1016.8
20260903164527 90 236 0.0 2.6 0.00 0.00 0.00 82 1017.0
20260903163025 88 188 0.0 0.9 0.00 0.00 0.00 87 1017.1
20260903161521 86 251 0.0 0.9 0.00 0.00 0.00 96 1017.3
20260903160015 83 120 0.0 0.9 0.00 0.00 0.00 99 1017.3
20260903154557 82 127 0.0 1.7 0.00 0.00 0.00 99 1017.4
20260903153054 82 89 0.0 1.7 0.00 0.00 0.00 100 1017.4
20260903151553 81 251 0.0 0.0 0.00 0.00 0.00 100 1017.4
20260903150107 80 251 0.0 0.0 0.00 0.00 0.00 100 1017.4